Wind_Speed
22 22 22 22 22 21 20 21 21 21 21 21 18 17 19 22 24 13 11 1 2 9 14 15 15 12 12 14 12 15 10 6 14 11 12 9 14 8 13 12 6 3 17 25 28
22 22 22 22 23 23 21 22 21 21 21 21 18 17 17 19 19 19 5 10 11 15 17 17 15 14 12 10 9 9 3 5 6 9 15 9 14 10 11 12 10 9 24 29 27
23 23 23 23 24 22 23 24 22 22 21 18 18 17 15 15 15 7 4 6 13 21 19 16 15 14 15 10 12 13 4 11 5 10 3 15 16 11 12 12 16 16 23 24 26
23 24 24 24 24 24 25 23 25 23 19 16 16 16 13 8 5 6 3 5 12 20 19 17 13 15 15 15 12 11 14 14 9 6 4 1 16 7 15 10 20 17 23 23 21
26 25 24 25 25 24 24 27 25 20 17 17 15 12 8 8 7 4 4 4 14 16 19 16 16 16 16 12 9 11 12 4 4 5 5 10 10 13 14 12 17 18 21 22 20
26 26 25 25 26 25 25 28 21 20 19 16 11 6 9 14 3 4 3 9 12 17 15 17 12 15 13 14 10 5 11 8 7 4 7 12 10 10 17 12 17 18 21 21 20
27 27 25 25 27 25 28 22 20 16 12 10 5 5 10 11 1 3 4 11 13 15 15 19 16 13 10 13 14 11 11 13 12 10 10 12 12 10 11 15 17 17 18 19 19
28 29 28 27 26 26 24 18 17 8 8 5 2 7 7 3 5 9 8 8 8 15 13 12 15 11 18 11 6 13 15 14 15 15 9 14 14 25 19 16 16 17 17 18 19
29 29 29 29 24 27 19 18 7 6 5 2 4 9 5 3 11 8 14 13 12 11 9 8 12 15 16 14 13 15 15 19 12 14 11 15 8 20 17 17 15 16 16 17 18
29 29 28 27 27 21 17 12 6 3 3 7 10 7 7 4 3 3 6 10 11 12 12 10 10 14 15 15 15 18 19 19 15 15 10 14 8 19 17 18 16 16 16 17 18
29 31 29 28 26 12 16 7 5 7 12 11 2 9 5 1 6 10 10 14 15 14 16 16 13 17 20 20 19 19 19 20 11 14 16 16 23 17 14 16 18 16 16 17 18
30 32 29 25 18 9 11 5 7 7 8 4 3 5 3 3 5 10 11 13 13 17 19 15 19 18 16 17 21 21 16 16 10 17 20 11 15 17 15 14 16 18 17 18 19
32 32 29 19 4 7 6 6 6 7 7 10 3 1 2 7 8 13 13 16 16 20 21 21 16 20 16 17 18 20 19 17 13 13 15 18 13 4 13 12 16 18 18 17 20
31 32 22 9 4 4 1 6 9 4 6 13 11 5 8 3 8 1 10 10 11 18 20 21 18 8 22 16 16 21 21 20 17 16 13 19 8 8 33 17 14 14 19 17 19
29 27 14 5 8 4 7 9 8 5 6 2 9 4 3 7 2 11 9 12 16 16 17 17 18 15 17 15 19 18 19 20 19 14 18 8 11 24 24 22 19 18 18 19 19
27 17 5 3 4 6 9 9 5 7 2 7 2 5 10 7 7 3 12 13 9 12 18 20 16 16 13 16 17 16 19 22 16 15 16 20 18 12 13 19 21 20 19 20 21
24 9 4 5 8 11 10 7 7 7 2 5 2 4 4 4 8 9 12 15 12 10 15 17 20 16 13 19 17 17 17 10 13 15 16 20 15 21 8 16 21 23 21 21 22
21 6 6 6 9 10 10 9 11 8 4 3 4 6 11 5 4 6 6 6 4 11 13 15 18 20 19 20 18 19 22 14 19 18 16 20 17 18 19 12 19 20 21 21 22
10 5 9 3 7 8 8 9 7 6 4 5 5 9 10 7 5 10 9 1 5 6 13 13 21 24 21 17 21 19 22 23 22 20 16 17 18 8 10 17 11 8 9 21 22
9 5 1 7 6 10 8 6 3 5 7 6 11 2 8 9 9 11 13 3 2 3 9 9 13 15 20 15 20 22 19 18 16 21 19 21 22 15 12 9 10 9 11 12 20
8 5 5 5 7 7 7 6 2 4 6 6 3 5 8 3 13 10 10 7 3 4 7 9 10 13 15 19 19 15 18 16 19 16 13 13 13 14 21 17 13 14 17 20 20
7 4 5 5 9 2 1 3 3 1 1 1 5 8 7 1 10 6 6 2 3 8 9 2 8 16 18 16 20 20 21 17 14 21 16 12 2 9 18 11 7 9 11 11 12
5 3 3 7 6 3 5 3 3 3 2 2 2 5 1 5 5 8 1 4 5 5 5 7 10 12 16 18 19 22 20 22 18 19 21 16 6 10 4 10 9 11 9 8 7
5 3 4 1 4 8 1 4 4 1 2 6 6 4 5 8 5 2 9 5 2 5 5 5 12 13 12 3 11 20 21 19 23 16 17 18 10 8 13 5 10 8 9 10 8
2 4 5 3 4 5 4 5 5 2 3 5 5 8 7 7 8 9 4 5 8 6 7 6 12 14 17 6 8 14 23 23 19 18 21 15 21 13 14 10 8 7 11 13 12
5 4 3 4 1 5 3 4 4 2 4 2 8 12 6 10 7 6 3 6 6 2 7 8 9 10 13 14 13 12 11 13 21 19 17 18 16 18 14 11 10 12 12 13 11
2 1 6 4 2 5 4 4 3 3 2 1 6 7 10 12 12 10 10 9 10 7 8 7 8 10 15 16 15 16 16 17 17 17 19 17 7 10 7 12 9 11 13 10 9
Wind_Direction
353 350 348 347 343 342 338 336 334 333 332 331 329 330 329 322 316 292 262 90 206 221 168 180 198 213 217 240 247 278 325 211 157 41 122 157 121 128 122 124 132 106 135 142 147
351 349 347 345 344 340 336 333 332 330 328 326 324 328 330 321 306 274 244 262 239 193 191 190 195 200 214 239 242 238 257 260 78 163 119 142 131 120 162 129 128 128 124 140 152
346 346 345 344 342 339 333 331 329 327 323 322 321 326 328 321 276 103 168 302 209 193 214 202 210 209 231 237 228 258 206 268 108 27 4 132 124 157 150 165 145 148 142 154 159
342 341 340 342 342 337 332 330 325 321 319 315 317 322 319 295 293 70 308 319 184 186 227 214 222 217 239 233 235 256 164 269 86 93 3 180 112 160 74 97 132 148 153 160 166
339 338 338 338 338 335 332 326 321 319 314 306 308 314 314 231 256 81 352 167 169 194 221 215 221 222 238 248 235 250 276 175 166 152 144 262 140 117 109 98 120 143 158 167 171
343 343 343 338 337 335 330 323 321 318 310 300 298 287 252 257 89 79 166 166 181 204 218 219 225 228 261 264 250 239 245 254 264 206 174 229 145 162 108 127 133 154 166 172 174
343 343 343 338 336 333 328 323 321 320 318 308 292 209 263 257 140 197 191 194 201 213 214 216 230 245 228 264 242 264 247 231 221 214 175 240 172 121 124 138 146 162 172 174 177
345 342 339 336 335 331 325 322 320 320 331 336 234 215 265 104 240 230 217 202 214 215 242 225 233 254 254 267 243 236 236 239 216 203 189 209 187 138 173 145 155 162 171 176 180
347 343 339 334 333 330 323 322 310 302 303 297 207 235 237 146 216 209 205 214 191 207 205 258 218 232 227 235 240 226 223 220 221 185 189 213 210 137 162 153 155 161 170 180 179
346 341 339 335 332 329 325 322 272 283 273 250 259 245 226 183 95 265 203 227 196 197 198 214 207 221 233 207 225 209 226 203 209 175 217 172 285 144 175 161 157 164 169 180 184
344 339 339 337 332 328 331 279 214 198 218 301 324 306 251 223 234 220 193 201 203 193 205 211 212 213 216 225 236 243 216 246 202 170 195 206 168 138 185 175 158 166 173 182 188
344 341 338 337 332 332 298 345 37 342 297 195 248 240 255 248 223 213 187 196 202 208 207 191 226 228 228 228 228 248 259 232 214 131 253 185 178 162 179 193 174 172 178 183 187
343 340 337 341 330 303 356 36 339 325 254 165 181 286 113 219 227 168 205 215 198 214 205 225 215 225 226 228 229 228 226 234 175 205 247 180 233 101 178 204 178 175 175 189 188
343 339 339 347 285 350 178 337 326 310 263 150 196 134 188 226 212 54 225 255 225 226 224 224 234 227 220 231 234 231 222 242 239 231 218 226 208 319 240 189 194 203 174 185 189
342 338 344 4 325 289 335 320 316 242 254 106 124 75 173 240 65 177 206 237 254 215 229 215 225 198 236 212 230 241 216 227 245 225 251 232 260 190 227 188 191 198 196 180 189
341 337 22 326 238 338 317 305 251 231 214 129 166 206 194 196 168 137 195 234 274 264 227 242 211 242 224 221 230 223 238 213 232 238 238 197 238 215 183 235 187 196 201 187 183
339 312 324 310 337 326 317 245 236 255 140 118 142 232 259 157 176 220 189 202 223 220 228 215 239 207 238 227 214 221 221 196 213 221 235 233 165 260 182 323 202 193 193 188 192
333 264 288 274 311 316 290 249 261 45 26 64 269 219 232 183 183 191 193 176 248 298 271 212 210 211 215 240 205 210 223 216 205 211 219 240 225 231 134 171 268 206 182 186 195
338 245 253 261 309 305 268 243 11 36 5 303 230 255 176 196 265 209 231 60 45 306 277 260 231 195 219 208 240 197 231 231 250 219 230 212 207 205 182 184 216 205 207 178 191
324 258 112 307 287 276 256 295 24 359 305 261 272 249 255 177 216 212 180 59 235 297 280 318 278 219 192 207 231 247 209 229 242 252 239 230 206 205 182 199 215 198 192 213 189
265 256 63 316 269 244 274 53 75 60 310 315 324 268 282 262 270 208 169 97 292 299 278 289 261 239 189 211 213 210 241 221 237 240 248 241 181 268 176 199 203 208 208 198 193
284 271 29 305 255 293 25 11 6 27 218 297 296 313 276 163 245 250 225 48 349 296 232 146 271 238 226 217 224 236 216 232 224 221 246 272 25 11 187 175 233 98 52 10 319
301 326 45 288 287 158 102 152 320 266 321 280 272 279 283 268 263 285 180 87 329 306 3 6 234 233 244 201 223 229 224 220 230 243 216 244 142 130 250 133 71 50 28 3 303
285 261 143 209 340 306 285 182 180 6 324 306 323 301 253 238 225 228 217 161 291 339 332 280 259 273 219 340 216 214 233 229 227 223 230 217 174 147 149 164 98 57 13 11 331
291 59 3 338 61 346 297 15 258 157 301 279 229 259 268 264 232 229 241 239 183 141 252 267 266 265 269 307 282 283 210 227 228 231 225 222 226 191 119 110 76 24 23 23 356
312 315 167 68 315 243 98 72 301 106 294 343 280 343 310 267 298 4 235 237 283 119 268 255 266 270 277 260 249 247 259 270 221 230 250 247 224 230 104 78 32 19 21 14 11
19 309 276 115 179 263 52 80 110 271 32 182 284 274 282 6 334 332 312 311 297 280 282 276 272 251 258 228 232 228 225 226 248 225 231 234 236 11 34 54 19 356 27 353 21
Height
819 816 812 808 805 801 798 795 791 789 786 783 781 779 776 771 765 764 759 755 755 756 758 759 757 754 752 743 737 729 758 775 750 767 736 725 735 731 735 749 750 753 759 770 783
818 815 811 807 803 799 796 793 790 786 783 781 778 776 774 770 764 755 754 754 755 756 757 753 752 750 747 740 733 741 792 751 719 720 725 724 728 736 742 753 758 760 761 775 783
818 813 810 806 802 797 793 790 787 784 780 778 776 774 772 769 760 743 751 751 751 754 753 751 747 745 746 733 731 731 786 728 721 718 713 721 728 729 735 752 755 763 768 777 783
817 813 808 804 800 795 791 787 783 781 778 775 774 772 770 768 761 748 751 750 750 754 752 748 744 749 748 744 728 744 762 725 719 719 724 724 720 731 734 734 741 754 766 775 782
815 811 806 802 798 793 789 785 780 777 775 773 771 771 769 758 747 750 750 750 753 755 749 745 747 744 747 734 730 739 727 721 720 721 725 719 725 732 736 735 744 757 767 774 778
813 809 805 800 795 791 786 781 777 774 771 769 768 769 769 761 749 750 751 753 753 752 748 744 741 737 736 735 738 728 727 724 720 722 724 727 724 727 734 738 750 760 766 771 775
812 807 802 798 794 789 783 778 775 771 769 766 766 766 760 749 749 750 751 750 749 749 745 744 740 740 737 743 728 729 744 729 725 721 724 719 735 738 734 738 752 760 765 770 773
811 805 800 795 791 786 780 776 773 770 768 766 765 766 750 746 748 749 749 748 749 748 744 743 743 742 738 729 735 743 740 750 721 717 717 726 746 730 731 740 752 756 763 769 772
809 803 798 793 787 783 778 774 770 770 768 766 766 760 743 746 745 742 743 744 745 746 746 746 744 746 741 751 753 739 751 746 730 708 714 727 750 722 724 735 750 756 761 768 772
807 802 795 790 785 779 775 771 768 768 767 768 763 760 743 739 741 742 742 742 739 743 747 747 746 751 744 748 765 748 745 727 732 720 719 729 763 723 724 729 744 752 759 765 770
805 800 793 788 783 778 772 771 768 765 762 747 744 743 739 741 744 741 739 741 738 741 753 745 753 754 739 735 729 722 728 728 715 706 721 725 747 724 724 723 737 747 756 762 766
803 797 790 784 780 778 773 763 772 774 760 744 746 743 743 744 739 736 737 741 742 748 741 745 752 730 726 724 732 729 734 730 723 723 718 729 738 720 724 723 728 738 749 754 760
801 794 787 782 779 778 774 773 774 772 762 742 738 736 737 739 734 730 734 732 737 742 736 740 732 725 727 732 738 735 737 730 735 722 716 735 745 746 725 723 719 724 735 744 752
798 792 785 781 782 776 772 775 773 772 757 743 741 737 735 734 737 729 729 728 731 737 732 733 717 727 731 738 734 742 722 722 724 742 755 717 784 784 756 733 727 724 728 738 745
797 790 785 781 781 772 777 775 773 770 765 739 732 734 731 735 731 733 730 729 734 733 729 733 730 732 740 734 729 735 713 725 723 730 730 729 742 752 727 727 726 721 720 727 738
795 790 785 783 781 778 776 774 772 770 761 745 734 735 736 730 732 729 733 730 720 726 724 724 710 718 724 722 720 719 722 723 728 732 752 743 744 723 729 726 711 711 712 719 729
793 789 785 784 777 777 775 769 766 756 739 746 741 736 731 737 737 733 737 741 744 755 744 733 725 717 719 730 720 725 731 761 770 761 758 715 745 720 710 723 695 701 705 710 719
790 787 785 783 779 777 773 764 768 745 747 746 746 741 743 739 739 737 739 744 739 740 737 743 751 724 719 725 729 731 726 744 774 761 746 714 735 715 697 715 687 683 689 699 712
787 785 782 778 778 777 769 761 750 753 756 755 746 748 743 744 744 741 740 738 749 746 754 738 732 704 713 716 715 729 736 711 724 715 728 713 711 690 685 699 688 689 687 693 703
789 779 775 777 776 773 763 765 757 759 760 755 756 752 745 744 751 745 750 759 757 752 745 736 749 706 710 711 711 714 712 742 727 754 750 717 713 717 709 703 694 694 693 691 693
788 770 774 775 773 763 756 758 764 765 765 764 758 757 751 753 748 741 741 765 764 755 748 737 743 725 715 724 726 728 727 722 718 719 736 736 722 686 690 698 695 689 681 681 686
781 766 774 774 768 756 754 764 782 766 766 765 765 761 761 758 754 750 755 763 770 761 752 742 742 745 722 708 708 707 717 719 734 742 716 713 721 696 679 680 683 686 687 685 681
776 770 773 772 760 752 767 768 769 769 771 769 769 770 768 766 772 762 762 773 772 763 759 755 747 748 733 716 710 719 709 714 713 711 730 733 729 703 688 687 688 694 697 694 690
783 767 763 768 767 768 769 768 773 779 776 775 772 774 774 772 768 769 772 773 775 771 784 776 748 740 737 726 712 729 718 711 714 727 722 718 712 711 702 700 695 699 700 697 693
783 777 783 768 768 774 776 776 774 781 783 781 778 778 774 776 773 775 771 771 772 779 769 763 762 743 732 729 729 722 719 715 719 712 725 708 710 699 700 704 709 705 701 700 699
790 783 781 782 786 780 794 786 786 787 791 787 790 783 779 782 775 775 777 778 769 770 769 758 767 754 752 735 732 734 724 716 712 713 710 704 704 680 690 694 704 716 706 708 708
798 796 788 796 782 777 783 788 791 791 794 795 794 794 793 801 792 785 782 779 778 783 776 770 764 763 757 731 731 744 729 727 721 711 712 722 703 698 699 705 713 712 714 721 716